{"data":{"norad_id":39089,"epoch":"2026-09-19T23:34:20.554176Z","epoch_age_seconds":58999,"freshness":"FRESH","line1":"1 39089U 13009D   26262.98218234  .00000089  00000+0  45449-4 0  9993","line2":"2 39089  98.4227  80.7964 0010406 329.4723  30.5857 14.35854253710341","mean_motion":14.35854253,"eccentricity":0.0010406,"inclination_deg":98.4227,"raan_deg":80.7964,"arg_perigee_deg":329.4723,"mean_anomaly_deg":30.5857,"bstar":4.5449e-5,"rev_number":71034,"period_min":100.28873034929,"perigee_km":764.78827116419,"apogee_km":779.66961276261,"semimajor_km":7150.3659419634,"source":"CELESTRAK","updated_at":"2026-09-20T09:00:47.145171Z"}}